INTELSAT 33E DEB, 64404

Orbit data source: Space-Track

INTELSAT 33E DEB, 64404 is space debris in GEO originally from a launch on Wed, 24 Aug 2016 UTC launched from the French Guiana (FRGUI). Debris objects in space refer to the collection of defunct objects orbiting the Earth. Examples of debris include non-operational satellites, rocket bodies, and fragments generated from explosions, collisions, or faulty payload assembly.

Not visible in the next 10 days
Identifier
64404, 2016-053AJ
Orbit
GEO
Country
Flag of UnknownUnknown / ITSO
Related business
Manufacturer
Boeing/ES
Mission
Spacecraft
Bus & Motor
Unknown
Mass
Unknown
Launch date (UTC)
2016-08-24 (9 years ago)
Launch vehicle
Unknown
Launch site
French Guiana (FRGUI)
Object type
Payload
Rocket body
Debris
Shape & HBR
Unknown shape, 1.1 m
Radar Cross Section
RCS unknown

Expand to show TLE details & history
Last TLE update: 23 hours ago

TLE from 23 hours ago
0 INTELSAT 33E DEB
1 64404U 16053AJ  25340.27959137  .00000006  00000-0  00000-0 0  9996
2 64404   0.9866  52.3289 0101637  35.3693 273.4824  0.99879386  3984
Epoch: 2025-12-06T06:42Z
TLE epoch observation values (Epoch: 2025-12-06T06:42:36.694Z)
Latitude
-0.77045°
Longitude
-175.95834°
Altitude
35,873.884 km
Speed
3.072 km/s
True Right ascension
00h 00m 00s
True Declination
0° 46' 11"
Sunlit
Object was in daylight at epoch
Visualization orbit readout
Latitude
Unknown
Longitude
Unknown
Altitude
Unknown
Speed
Unknown
Apparent Right ascension
Unknown
Apparent Declination
Unknown
Sunlit
N/A
Visualization observer readout
Local Sidereal Time
03:27:30
Azimuth
Unknown
Elevation
Unknown
Doppler factor
Unknown
Orbital elements
Apogee altitude
36,327.708 km
Perigee altitude
35,468.344 km
Semi-major axis
42,276.163 km
Eccentricity
0.01016
Inclination
0.9866°
RAAN
52.3289°
Arg. of periapsis
35.3693°
True anomaly
272.31906°
Mean anomaly
273.4824°
Eccentric anomaly
272.90081°
Mean motion
0.24969 °/min
Orbital period
1,441.79 mins
BSTAR
0
Loading maneuver chart data...
Computing Atmospheric mass density...
Loading historical data...
Loading historical data...
Loading historical data...
Loading historical data...
Loading historical data...
Loading historical data...
Loading historical data...

Documentation

Showing up to 5 results
|